Regional Weather Roundup
Issued by NWS

Home | Current Version | Previous Version | Graphics & Text | Print | Product List | Glossary On
Versions: 1 2 3 4 5 6 7 8 9 10 11 12 13 14 15 16 17 18 19 20 21 22 23 24 25 26 27 28 29 30 31 32 33 34 35 36 37 38 39 40 41 42 43 44 45 46 47 48 49 50
000
ASUS45 KPSR 291210
RWRAZ

ARIZONA HOURLY REGIONAL WEATHER ROUNDUP
NATIONAL WEATHER SERVICE PHOENIX AZ
500 AM MST SAT AUG 29 2015

NOTE: FAIR INDICATES FEW OR NO CLOUDS BELOW 12,000 FEET WITH NO
SIGNIFICANT WEATHER AND/OR OBSTRUCTIONS TO VISIBILITY.

AZZ001>003-036-291300-
NORTHWEST ARIZONA

CITY           SKY/WX    TMP DP  RH WIND       PRES   REMARKS
BULLHEAD CITY  CLEAR     91  50  24 CALM      29.78R
KINGMAN        CLEAR     70  52  52 CALM      30.01S
6HR MIN TEMP:  70; 6HR MAX TEMP:  81;

$$

AZZ004>008-015-016-018-291300-
NORTH CENTRAL ARIZONA

CITY           SKY/WX    TMP DP  RH WIND       PRES   REMARKS
GRAND CANYON   CLEAR     47  40  76 CALM      30.30R
6HR MIN TEMP:  46; 6HR MAX TEMP:  54;

WILLIAMS       CLEAR     54  46  76 S10       30.34S
PRESCOTT       CLEAR     62  53  72 SW5       30.16R
6HR MIN TEMP:  62; 6HR MAX TEMP:  73;

FLAGSTAFF      CLEAR     48  45  89 CALM      30.33R
6HR MIN TEMP:  47; 6HR MAX TEMP:  54;

PAYSON         CLEAR     66  46  48 CALM      30.18R
PAGE           CLEAR     71  41  33 CALM      30.12R
6HR MIN TEMP:  70; 6HR MAX TEMP:  82;

$$

AZZ009>014-017-291300-
NORTHEAST ARIZONA

CITY           SKY/WX    TMP DP  RH WIND       PRES   REMARKS
WINSLOW        CLEAR     58  51  78 SW5       30.18R
6HR MIN TEMP:  58; 6HR MAX TEMP:  73;

SAINT JOHNS    CLEAR     58  53  84 CALM      30.23R
6HR MIN TEMP:  58; 6HR MAX TEMP:  69;

WINDOW ROCK    CLEAR     49  42  77 CALM      30.34R
6HR MIN TEMP:  49; 6HR MAX TEMP:  58;

SHOW LOW       CLEAR     54  46  76 CALM      30.28R
$$

AZZ023-291300-
GREATER PHOENIX AREA

CITY           SKY/WX    TMP DP  RH WIND       PRES   REMARKS
PHOENIX        PTCLDY    88  62  41 E7        29.81R
6HR MIN TEMP:  88; 6HR MAX TEMP: 100;

BUCKEYE          N/A     82  59  44 N3        29.82R
LUKE AFB       CLEAR     84  66  54 NW5       29.81R
6HR MIN TEMP:  83; 6HR MAX TEMP:  96;

DEER VALLEY    CLEAR     84  52  33 E6        29.84R
6HR MIN TEMP:  84; 6HR MAX TEMP:  93;

SCOTTSDALE     CLEAR     85  59  41 CALM      29.86R
6HR MIN TEMP:  85; 6HR MAX TEMP:  96;

MESA-GATEWAY   PTCLDY    82  55  39 E7        29.86S
$$

AZZ027-028-291300-
SOUTHWEST MARICOPA COUNTY AND PINAL COUNTY

CITY           SKY/WX    TMP DP  RH WIND       PRES   REMARKS
CASA GRANDE    CLEAR     81  54  39 CALM      29.85R
6HR MIN TEMP:  81; 6HR MAX TEMP:  90;

GILA BEND      FAIR      88  60  39 S8        29.80R
6HR MIN TEMP:  88; 6HR MAX TEMP:  94;

$$

AZZ503-504-507>509-291300-
SOUTHEAST ARIZONA

CITY           SKY/WX    TMP DP  RH WIND       PRES   REMARKS
TUCSON         CLEAR     79  58  48 SE9       29.98S
6HR MIN TEMP:  79; 6HR MAX TEMP:  87;

DAVIS-MONTHAN  CLEAR     77  59  53 SE8       29.97R
6HR MIN TEMP:  77; 6HR MAX TEMP:  82;

NOGALES        CLEAR     65  57  75 E6        30.07S
6HR MIN TEMP:  65; 6HR MAX TEMP:  75;

SIERRA VISTA   CLEAR     70  55  57 S5        30.14R
6HR MIN TEMP:  69; 6HR MAX TEMP:  75;

DOUGLAS        CLEAR     66  59  78 SE3       30.10S
6HR MIN TEMP:  65; 6HR MAX TEMP:  75;

SAFFORD        CLEAR     76  58  53 SE12      30.03R
6HR MIN TEMP:  75; 6HR MAX TEMP:  80;

$$

AZZ020-021-025-026-031-291300-
SOUTHWEST ARIZONA

CITY           SKY/WX    TMP DP  RH WIND       PRES   REMARKS
YUMA           CLEAR     89  66  46 S6        29.75R
6HR MIN TEMP:  89; 6HR MAX TEMP:  98;

$$

CAZ031-033-041-043-047-048-061-291300-
SOUTHERN CALIFORNIA

CITY           SKY/WX    TMP DP  RH WIND       PRES   REMARKS
DOWNTOWN L.A.  CLEAR     74  65  73 CALM      29.85S
6HR MIN TEMP:  73; 6HR MAX TEMP:  76;

L.A. AIRPORT   CLEAR     72  66  81 E3        29.85F
6HR MIN TEMP:  71; 6HR MAX TEMP:  74;

SAN DIEGO      CLEAR     74  68  81 N3        29.86S
6HR MIN TEMP:  74; 6HR MAX TEMP:  77;

BURBANK        CLEAR     75  56  51 CALM      29.87F
6HR MIN TEMP:  75; 6HR MAX TEMP:  80;

ONTARIO        CLEAR     75  57  53 CALM      29.88S
6HR MIN TEMP:  74; 6HR MAX TEMP:  83;

RIVERSIDE      CLEAR     74  55  51 CALM      29.89R
6HR MIN TEMP:  74; 6HR MAX TEMP:  84;

PALM SPRINGS   CLEAR     87  56  34 SW3       29.78R
6HR MIN TEMP:  87; 6HR MAX TEMP: 101;

EL CENTRO NAS  CLEAR     90  49  24 W8        29.73S
6HR MIN TEMP:  87; 6HR MAX TEMP:  96;

IMPERIAL       CLEAR     87  53  31 W6        29.71S
6HR MIN TEMP:  87; 6HR MAX TEMP:  96;

BLYTHE         CLEAR     87  64  46 CALM      29.74S
6HR MIN TEMP:  87; 6HR MAX TEMP: 100;

NEEDLES        CLEAR     91  51  25 W3        29.78S
6HR MIN TEMP:  90; 6HR MAX TEMP: 102;

$$

NVZ020-UTZ003-291300-
SOUTHERN NEVADA-UTAH

CITY           SKY/WX    TMP DP  RH WIND       PRES   REMARKS
LAS VEGAS      PTCLDY    88  49  25 S7        29.83F
6HR MIN TEMP:  88; 6HR MAX TEMP:  94;

SALT LAKE CITY PTCLDY    76  39  26 SE17      30.04S
6HR MIN TEMP:  73; 6HR MAX TEMP:  79;

$$

NMZ009-TXZ055-291300-
NEW MEXICO-WEST TEXAS

CITY           SKY/WX    TMP DP  RH WIND       PRES   REMARKS
ALBUQUERQUE    PTCLDY    70  51  51 E8        30.27F
6HR MIN TEMP:  70; 6HR MAX TEMP:  73; 6HR PCP: TRACE;

EL PASO        MOCLDY    72  60  66 N7        30.13S
6HR MIN TEMP:  72; 6HR MAX TEMP:  75; 6HR PCP:  0.16;

$$


........................KEY........................
SKY/WX - SKY CONDITION/WEATHER
TMP    - TEMPERATURE IN FAHRENHEIT
DP     - DEW POINT IN FAHRENHEIT
RH     - RELATIVE HUMIDITY IN PERCENT
WIND   - DIRECTION AND SPEED IN MILES PER HOUR (MPH)
VRB    - VARIABLE WIND DIRECTION
PRES   - MEAN SEA LEVEL PRESSURE IN INCHES OF MERCURY
         F - FALLING PRESSURE   R - RISING PRESSURE
         S - STEADY PRESSURE
VSB    - VISIBILITY IN MILES
HX     - HEAT INDEX IN FAHRENHEIT
WCI    - WIND CHILL INDEX IN FAHRENHEIT
TC     - TEMPERATURE IN CELSIUS WHICH IS ALSO KNOWN AS
         TEMPERATURE IN CENTIGRADE
AFB    - AIR FORCE BASE
         LUKE AFB IS LUKE AIR FORCE BASE
         DAVIS-MONTHAN IS DAVIS-MONTHAN AIR FORCE BASE
NAS    - NAVAL AIR STATION
         EL CENTRO NAS IS EL CENTRO NAVAL AIR STATION
N/A    - NOT AVAILABLE




USA.gov is the U.S. government's official web portal to all federal, state and local government web resources and services.